Αρχική σελίδα
METAR-TAF:

METAR-TAF

Αεροδρόμια :

Angoon, Αλάσκα, Ηνωμένες Πολιτείες Αμερικής

γεωγραφικό πλάτος: 57-30N, γεωγραφικό μήκος: 134-35W, υψόμετρο: 0 μ

Παρών καιρός

Η αναφορά έγινε 1 ώρα και 21 λεπτά πριν, στις 12:56 UTC
Άνεμος 6 kt από Α/BA
Θερμοκρασία 7°C
Υγρασία 76%
Πίεση 1008 hPa
Ορατότητα: 16.1 χλμ
Νεφοσκεπής σε ύψος 5500 πόδια

METAR: PAGN 101256Z AUTO 07006KT 10SM OVC055 07/03 A2978 RMK AO2 SLP075 T00670033

Χρόνος: 05:17 (14:17 UTC)


TAF: λείπει

Μετεωρολογικές αναφορές και προγνώσεις για περισσότερα από 4000 αεροδρόμια (δελτία METAR και TAF).

Οι διαθέσιμοι σταθμοί απεικονίζονται στο χάρτη με κίτρινες και κόκκινες κουκκίδες.

Μετακινήστε το ποντίκι πάνω από τις κουκκίδες για να δείτε το όνομα του σταθμού.

Στη συνέχεια, κάντε κλικ για να δείτε τις μετεωρολογικές αναφορές και τις προγνώσεις καιρού.

Για να αλλάξετε το χάρτη: κάντε κλικ στα πράσινα κουμπιά με τον μαύρο σταυρό για να ζουμάρετε, στο πράσινο κουμπί με την παύλα για να αφαιρέσετε το ζουμ ή στα πράσινα βέλη για να αντιπαραβάλλετε χάρτες.


METAR-TAF: